Regional Weather Roundup
Issued by NWS Charleston, SC

Current Version | Previous Version | Graphics & Text | Print | Product List | Glossary On
Versions: 1 2 3 4 5 6 7 8 9 10 11 12 13 14 15 16 17 18 19 20 21 22 23 24 25 26 27 28 29 30 31 32 33 34 35 36 37 38 39 40 41 42 43 44 45 46 47 48 49 50
000 ASUS42 KCHS 201810 RWRCHS REGIONAL WEATHER ROUNDUP NATIONAL WEATHER SERVICE CHARLESTON SC 100 PM EST SAT DEC 20 2014 NOTE: "FAIR" INDICATES FEW OR NO CLOUDS BELOW 12,000 FEET WITH NO SIGNIFICANT WEATHER AND/OR OBSTRUCTIONS TO VISIBILITY. NOT ALL STATIONS ARE QUALITY CONTROLLED BY THE NATIONAL WEATHER SERVICE. USE DATA WITH CAUTION...ESPECIALLY DEWPOINT OBSERVATIONS. SCZ027-030-031-034>040-042>050-201900- ...SOUTHEAST SOUTH CAROLINA... CITY SKY/WX TMP DP RH WIND PRES REMARKS N CHARLESTON CLOUDY 54 51 90 N7 30.17F 6HR MIN TEMP: 50; 6HR MAX TEMP: 54; 6HR PCP: 0.10; WATERFRONT PRK N/A 55 N/A N/A N9 N/A MOUNT PLEASANT MOCLDY 54 54 100 NE3 30.17F PINOPOLIS N/A 54 50 87 NE7 30.09 MONCKS CORNER N/A 54 50 87 E3 30.18F FOG SUMMERVILLE DRIZZLE 52 52 100 CALM 30.18F BEAUFORT MCAS CLOUDY 54 51 90 N9 30.17F 6HR MIN TEMP: 50; 6HR MAX TEMP: 54; 6HR PCP: 0.07; BEAUFORT ARPT LGT RAIN 54 54 100 N9 30.17F HILTON HEAD IS CLOUDY 54 52 94 N10 30.17F WALTERBORO DRIZZLE 54 N/A N/A NE6 30.17F ALLENDALE CLOUDY 52 52 100 CALM 30.17F ...SOUTHERN MIDLANDS AND PEE DEE... CITY SKY/WX TMP DP RH WIND PRES REMARKS GEORGETOWN NOT AVBL KINGSTREE NOT AVBL ORANGEBURG LGT RAIN 50 47 89 NE6 30.19F 6HR MIN TEMP: 46; 6HR MAX TEMP: 50; 6HR PCP: 0.11; BARNWELL CLOUDY 52 52 100 CALM 30.19F AIKEN CLOUDY 48 48 100 E5 30.21F FOG MANNING NOT AVBL COLUMBIA CLOUDY 49 44 83 E7 30.20F 6HR MIN TEMP: 46; 6HR MAX TEMP: 49; 6HR PCP: 0.02; SUMTER CLOUDY 47 44 91 NE7 30.19F 6HR MIN TEMP: 43; 6HR MAX TEMP: 47; 6HR PCP: 0.03; FLORENCE CLOUDY 46 40 79 E10 30.22F 6HR MIN TEMP: 43; 6HR MAX TEMP: 46; 6HR PCP: 0.02; MYRTLE BEACH LGT RAIN 48 45 87 NE9 30.21F FOG N MYRTLE BEACH RAIN 47 45 93 NE6 30.21F FOG 6HR MIN TEMP: 46; 6HR MAX TEMP: 48; 6HR PCP: 0.10; $$ GAZ063-065-086>088-099>101-113>116-118-119-134>141-150-201900- ...SOUTHEAST GEORGIA... CITY SKY/WX TMP DP RH WIND PRES REMARKS SAVANNAH ARPT CLOUDY 53 49 86 N7 30.17F 6HR MIN TEMP: 50; 6HR MAX TEMP: 53; 6HR PCP: 0.08; HUNTER AAF CLOUDY 54 52 94 N9 30.15F 6HR MIN TEMP: 51; 6HR MAX TEMP: 55; 6HR PCP: 0.01; FORT STEWART PTSUNNY 56 50 80 N8 30.14F 6HR MIN TEMP: 51; 6HR MAX TEMP: 56; 6HR PCP: 0.03; STATESBORO DRIZZLE 52 52 100 CALM 30.15F SYLVANIA CLOUDY 53 53 98 NE3 30.17F CLAXTON LGT RAIN 54 52 94 CALM 30.15F ...CSRA...CENTRAL AND FAR SOUTHEAST GEORGIA... CITY SKY/WX TMP DP RH WIND PRES REMARKS THOMSON CLOUDY 53 52 95 CALM 30.22F AUGUSTA-BUSH CLOUDY 53 50 89 E3 30.18F 6HR MIN TEMP: 48; 6HR MAX TEMP: 53; 6HR PCP: 0.03; AUGUSTA-DANIEL CLOUDY 52 51 97 CALM 30.18F SWAINSBORO CLOUDY 55 55 100 CALM 30.17F VIDALIA PTSUNNY 54 52 94 NE6 30.16S EASTMAN MOCLDY 55 55 99 NE6 30.18F HAZLEHURST CLOUDY 55 54 97 CALM 30.14F ALMA CLOUDY 55 50 83 NE6 30.14F 6HR MIN TEMP: 50; 6HR MAX TEMP: 55; 6HR PCP: TRACE; WAYCROSS CLOUDY 60 52 75 NE6 30.14F JESUP CLOUDY 59 54 82 NE6 30.15F BAXLEY DRIZZLE 55 52 88 CALM 30.14F BRUNSWICK CLOUDY 61 54 77 N6 30.14F SAINT SIMONS PTSUNNY 63 54 72 N9 30.13F 6HR MIN TEMP: 54; 6HR MAX TEMP: 63; $$ SCZ027-028-034-036>038-045-046-048>050-GAZ119-141-201900- ...LAKE AND SUPPLEMENTAL COASTAL OBSERVATIONS... STATION/POSITION TIME TEMP WIND PRES WAVE SWELL AIR SEA DIR/SP/G HT/PER HT/PER/DIR (UTC) (F) (DEG/KT/KT) (MB) (FT/S) (FT/S/D) UPR LAKE MARION NOT AVBL WINYAH BAY 1700 51 50/ 9 1022.0S LAKE MURRAY 1700 46 60/ 1/ 5 1022.7F ACE BASIN NERRS 1700 51 10/ 2 1022.0S FORT PULASKI 1800 53 56 10/ 6/ 8 1021.7F SAPELO ISLAND 1700 57 10/ 9 1021.0S $$ ANZ835-935-AMZ111-154-330-350-352-354-370-450-454-472-201900- ...C-MAN AND BUOY OBSERVATIONS... STATION/POSITION TIME TEMP WIND PRES WAVE SWELL AIR SEA DIR/SP/G HT/PER HT/PER/DIR (UTC) (F) (DEG/KT/KT) (MB) (FT/S) (FT/S/D) BUOY 41004 1800 61 68 20/ 10/ 12 1020.8F 4/ 5 3/ 5 BUOY 41008 1800 57 58 10/ 16/ 17 1020.1F 2/10 2/100/10 FOLLY BEACH CMAN 1700 54 30/ 14/ 15 1022.3F CAPERS NEARSHORE 1700 53 50/ 16/ 17 N/A FRIPP NEARSHORE NOT AVBL STATION/POSITION TIME TEMP WIND PRES WAVE SWELL AIR SEA DIR/SP/G HT/PER HT/PER/DIR (UTC) (F) (DEG/KT/KT) (MB) (FT/S) (FT/S/D) 5E ST. MARYS GA 1800 61 N/A 2/ 4 FRYING PAN BUOY 1800 54 63 40/ 16/ 19 1022.4F 3/ 4 2/170/10 BUOY 41025 1800 49 1024.0F 3/ 6 CAPE LOOKOUT NC 1700 44 10/ 9/ 11 1024.5R BUOY 41002 1723 64 71 90/ 10/ 12 1020.8F 3/11 2/ 80/11 BUOY 41010 1800 73 77 210/ 6/ 8 1019.2F 3/10 3/ 80/10 ST AUGUSTINE FL 1800 62 360/ 13/ 14 1019.8F $$

USA.gov is the U.S. government's official web portal to all federal, state and local government web resources and services.